This is the latest recevied weather packets stored in our database for station/object AI4QX-5. If no packets are shown the sender has not sent any weather packets the latest 10 day(s).
| Time | Temp. | Humidity | Pressure | Rain* | Wind** | Luminosity | Snow |
|---|---|---|---|---|---|---|---|
| 1777217400 | 27.22° C | 54% | 1010.6 hPa | 0 mm | - | - | - |
| 1777216800 | 27.22° C | 55% | 1010.6 hPa | 0 mm | - | - | - |
| 1777216200 | 26.67° C | 55% | 1010.8 hPa | 0 mm | - | - | - |
| 1777215600 | 26.67° C | 55% | 1010.9 hPa | 0 mm | - | - | - |
| 1777215001 | 26.67° C | 54% | 1011 hPa | 0 mm | - | - | - |
| 1777214400 | 26.11° C | 54% | 1010.9 hPa | 0 mm | - | - | - |
| 1777213800 | 26.11° C | 54% | 1011 hPa | 0 mm | - | - | - |
| 1777213200 | 26.11° C | 54% | 1011 hPa | 0 mm | - | - | - |
| 1777212600 | 25.56° C | 53% | 1010.9 hPa | 0 mm | - | - | - |
| 1777212000 | 25.56° C | 52% | 1010.8 hPa | 0 mm | - | - | - |
| 1777211400 | 25.56° C | 54% | 1010.8 hPa | 0 mm | - | - | - |
| 1777210800 | 25° C | 56% | 1010.8 hPa | 0 mm | - | - | - |
| 1777210200 | 25° C | 53% | 1010.8 hPa | 0 mm | - | - | - |
| 1777209600 | 25° C | 53% | 1010.8 hPa | 0 mm | - | - | - |
| 1777209000 | 24.44° C | 52% | 1010.9 hPa | 0 mm | - | - | - |
| 1777208400 | 24.44° C | 50% | 1011 hPa | 0 mm | - | - | - |
| 1777207800 | 24.44° C | 49% | 1011.1 hPa | 0 mm | - | - | - |
| 1777207200 | 24.44° C | 48% | 1011.1 hPa | 0 mm | - | - | - |
| 1777206600 | 24.44° C | 46% | 1011.1 hPa | 0 mm | - | - | - |
| 1777206000 | 24.44° C | 47% | 1011.1 hPa | 0 mm | - | - | - |
| 1777205400 | 24.44° C | 47% | 1011 hPa | 0 mm | - | - | - |
| 1777204800 | 24.44° C | 47% | 1010.8 hPa | 0 mm | - | - | - |
| 1777204200 | 24.44° C | 47% | 1010.8 hPa | 0 mm | - | - | - |
| 1777203600 | 24.44° C | 47% | 1010.5 hPa | 0 mm | - | - | - |
| 1777203000 | 24.44° C | 46% | 1010.6 hPa | 0 mm | - | - | - |
* Rain latest hour (hover to see other rain measurements)
** Current wind speed in m/s (hover to see current wind gust speed)